Location: Cosy Dell
(34.2789°N, 117.4537°W)
Time: 12:10:50
(UTC+00:00)

Cosmos 1725 Rocket - Pass Details

Date: 14 July 2020
Orbit: 963 x 989 km, 82.9° (Epoch: 08 August)

Event Time Altitude Azimuth Distance (km) Brightness Sun altitude
Exits shadow 10:04:33 58° 258° (WSW) 1,123 4.0 -26.3°
Maximum altitude 10:05:01 59° 278° (W) 1,107 4.1 -26.3°
Drops below altitude 10° 10:11:10 10° 358° (N) 2,725 7.0 -25.5°
Sets 10:13:44 0° 2° (N) 3,680 7.9 -25.2°
